Regional Weather Roundup
Issued by NWS

Home | Current Version | Previous Version | Text Only | Print | Product List | Glossary Off
Versions: 1 2 3 4 5 6 7 8 9 10 11 12 13 14 15 16 17 18 19 20 21 22 23 24 25 26 27 28 29 30 31 32 33 34 35 36 37 38 39 40 41 42 43 44 45 46 47 48 49 50

000
ASUS43 KLSX 251559
RWRMO

WEATHER SUMMARY FOR MISSOURI
NATIONAL WEATHER SERVICE SPRINGFIELD MO
1000 AM CST SUN JAN 25 2015

NOTE: "FAIR" INDICATES FEW OR NO CLOUDS BELOW 12,000 FEET WITH NO
       SIGNIFICANT WEATHER AND/OR OBSTRUCTIONS TO VISIBILITY.
       CURRENT SKY AND/OR WEATHER CONDITIONS ARE NOT AVAILABLE FOR
       CHILLICOTHE AND FARMINGTON.

MOZ001>031-035>038-043-044-053-054-251700-
...NORTHERN AND WESTERN MISSOURI...

CITY           SKY/WX    TMP DP  RH WIND       PRES   REMARKS
KANSAS CTY INT CLOUDY    36  33  89 NW16G30   29.76R WCI  26
KANSAS C DTWN  CLOUDY    39  33  79 NW17G28   29.76R WCI  30
LEE`S SUMMIT   CLOUDY    37  33  85 NW18G26   29.74R WCI  27
ST JOSEPH      CLOUDY    37  33  85 N26G35    29.79R WCI  25
CHILLICOTHE      N/A     36  34  92 NW12G21   29.70R WCI  28
KIRKSVILLE     LGT RAIN  40  39  97 N18       29.63R FOG

$$
MOZ066>068-077>081-088>096-101>105-251700-
...SOUTHWEST MISSOURI...

CITY           SKY/WX    TMP DP  RH WIND       PRES   REMARKS
SPRINGFIELD    CLOUDY    45  34  65 W20G29    29.69R
JOPLIN         CLOUDY    44  35  70 NW22G30   29.78R

$$
MOZ032>034-039>042-045>050-055>058-069>072-251700-
...CENTRAL MISSOURI...

CITY           SKY/WX    TMP DP  RH WIND       PRES   REMARKS
COLUMBIA       CLOUDY    41  39  93 W13       29.62R FOG
JEFFERSON CITY CLOUDY    44  38  79 NW14      29.63R
ROLLA          LGT RAIN  44  39  82 W13       29.59S
SEDALIA        CLOUDY    41  36  82 NW14G26   29.67R
OSAGE BEACH    CLOUDY    45  37  76 W8        29.64R

$$
MOZ051-052-059>065-251700-
...EAST CENTRAL MISSOURI...

CITY           SKY/WX    TMP DP  RH WIND       PRES   REMARKS
ST LOUIS INTL  CLOUDY    47  43  86 W6        29.58S
SPIRIT OF STL  CLOUDY    46  43  89 W8        29.58S
ST CHARLES     CLOUDY    44  43  96 CALM      29.58S FOG

$$
MOZ072>076-082>087-097>100-106>115-251700-
...SOUTH CENTRAL AND SOUTHEAST MISSOURI...

CITY           SKY/WX    TMP DP  RH WIND       PRES   REMARKS
CAPE GIRARDEAU LGT RAIN  40  39  97 S6        29.64F
FARMINGTON     CLOUDY    45  36  70 MISG      29.63R
POPLAR BLUFF   RAIN      41  38  89 SW8       29.64F FOG
WEST PLAINS    CLOUDY    47  42  83 W10       29.64F

$$


USA.gov is the U.S. government's official web portal to all federal, state and local government web resources and services.